#timestamp,LO_Frequency,Hit,StdDev 
1623387615.3,286047000.7,N
1623387635.1,286047000.6,N
1623387655.9,286046998.7,N
1623387675.7,286046999.1,N
1623387695.6,286046998.8,N
1623387715.4,286046998.8,N
1623387735.2,286046998.9,N
1623387755.1,286046998.1,N
1623387756.0,286046998.1,N
1623387775.8,286046998.2,N
1623387795.6,286046998.5,N
1623387815.5,286046998.8,N
1623387835.3,286046997.1,N
1623387855.2,286046998.6,N
1623387905.9,286046999.4,E
1623387915.8,286046998.6,N
1623387935.7,286047000.7,P
1623387955.5,286047000.0,N
1623387975.3,286047000.3,N
1623387995.2,286046998.2,N
1623388015.0,286046998.2,N
1623388015.9,286046998.2,N
1623388035.8,286047000.7,N
1623388055.6,286047000.2,N
1623388075.4,286047000.5,N
1623388095.3,286047011.9,Y
1623388115.1,286046999.0,P
1623388135.9,286046998.3,P
1623388155.7,286046998.7,N
1623388175.5,286047001.2,N
1623388195.4,286047000.0,N
1623388215.2,286047000.4,N
1623388235.1,286047000.7,N
1623388236.0,286047000.7,N
1623388255.8,286047000.8,N
1623388275.6,286047000.0,N
1623388295.5,286046998.2,N
1623388315.3,286047001.2,N
1623388335.2,286047000.6,N
1623388355.9,286047000.0,N
1623388375.7,286046999.8,N
1623388395.6,286047002.5,N
1623388415.4,286047002.6,N
1623388435.2,286047000.3,N
1623388455.1,286047000.0,N
1623388456.0,286047000.0,N
1623388475.8,286047000.2,N
1623388495.7,286047001.0,N
1623388515.5,286047000.3,N
1623388535.3,286047000.5,N
1623388555.2,286047000.5,N
1623388575.0,286046999.8,N
1623388575.9,286046999.8,N
1623388595.8,286047000.6,N
1623388615.6,286047000.1,N
1623388635.4,286047000.5,N
1623388655.3,286047000.3,N
1623388675.1,286046999.8,N
1623388695.8,286047000.4,N
1623388715.7,286047000.7,N
1623388735.5,286047000.8,N
1623388755.4,286047000.0,N
1623388775.2,286046999.9,N
1623388795.0,286047001.6,N
1623388795.9,286047001.6,N
1623388815.8,286047002.4,N
1623388835.6,286047002.1,N
1623388855.5,286047002.8,Y
1623388875.3,286047002.6,P
1623388895.1,286047002.2,N
1623388915.9,286047001.4,N
1623388935.7,286046999.8,N
1623388955.5,286047000.2,N
1623388975.4,286047002.2,N
1623388995.2,286047000.5,N
1623389015.0,286047000.9,N
1623389016.0,286047000.9,N
1623389035.8,286047001.1,N
1623389055.6,286046998.6,N
1623389075.5,286047000.5,N
1623389095.3,286046999.9,N
1623389115.1,286047000.6,N
1623389135.9,286047000.3,N
1623389155.7,286047002.3,N
1623389175.6,286046999.9,N
1623389195.4,286047000.1,N
1623389215.2,286047000.0,N
1623389235.1,286047000.3,N
1623389236.0,286047000.3,N
1623389255.8,286047000.8,N
1623389275.6,286047000.9,N
1623389295.5,286046999.9,N
1623389315.3,286047001.0,N
1623389335.2,286047000.4,N
1623389355.9,286046999.9,N
1623389375.7,286046999.9,N
1623389395.6,286046999.9,N
1623389415.4,286047000.2,N
1623389435.2,286047000.1,N
1623389455.1,286047000.0,N
1623389456.0,286047000.0,N
1623389475.8,286047002.8,Y
1623389495.7,286046999.9,P
1623389515.5,286047002.7,P
1623389535.3,286047002.7,N
1623389555.2,286047001.9,N
1623389575.0,286047002.2,N
1623389575.9,286047002.2,N
1623389595.7,286047001.9,N
1623389615.6,286047001.5,N
1623389635.4,286047004.4,Y
1623389655.3,286047002.3,P
1623389675.1,286046999.7,N
1623389676.0,286046999.7,N
1623389695.8,286046998.2,N
1623389715.7,286046996.9,N
1623389735.5,286046997.4,N
1623389755.3,286046999.5,N
1623389775.2,286046996.5,N
1623389795.0,286046998.9,N
1623389795.9,286046998.9,N
1623389815.8,286047000.7,N
1623389835.6,286047000.0,N
1623389855.4,286047000.4,N
1623389875.3,286047001.5,N
1623389895.1,286047006.0,Y
1623389915.9,286047007.3,P
1623389935.7,286047008.8,N
1623389955.5,286047006.5,N
1623389975.4,286047008.6,N
1623389995.2,286047008.7,N
1623390015.0,286047009.4,N
1623390015.9,286047009.4,N
1623390035.8,286047011.9,Y
1623390055.6,286047005.3,P
1623390075.5,286047002.9,N
1623390095.3,286047003.6,N
1623390115.1,286047003.4,N
1623390135.9,286047004.5,N
1623390155.7,286047003.7,N
1623390175.5,286047004.7,Y
1623390195.4,286046999.7,P
1623390215.2,286047004.4,N
1623390235.1,286047002.5,N
1623390236.0,286047002.5,N
1623390255.8,286047001.8,N
1623390275.6,286047000.2,N
1623390295.5,286047000.7,N
1623390315.3,286047000.9,N
1623390335.1,286047004.3,N
1623390355.9,286047003.9,N
1623390375.7,286047004.8,N
1623390395.6,286047004.8,N
1623390415.4,286047007.0,Y
1623390435.2,286047004.1,P
1623390455.1,286047005.1,P
1623390456.0,286047005.1,P
1623390475.8,286047007.6,Y
1623390495.7,286047001.4,P
1623390515.5,286047004.2,N
1623390535.3,286047003.9,N
1623390555.2,286047005.7,Y
1623390575.0,286046999.2,P
1623390575.9,286046999.2,N
1623390595.8,286047000.6,N
1623390615.6,286047000.4,N
1623390635.4,286047001.1,N
1623390655.3,286046998.7,N
1623390675.1,286046996.8,N
1623390695.8,286046998.7,N
1623390715.7,286047000.9,N
1623390735.5,286047001.9,N
1623390755.3,286047002.5,N
1623390775.2,286047000.1,N
1623390795.0,286047001.7,N
1623390795.9,286047001.7,N
1623390815.8,286047002.2,N
1623390835.6,286047001.6,N
1623390855.4,286047003.1,N
1623390875.3,286047004.0,N
1623390895.1,286047003.8,N
1623390915.9,286047002.6,N
1623390935.7,286047001.0,N
1623390955.5,286047002.8,N
1623390975.4,286047000.4,N
1623390995.2,286046999.7,N
1623391015.0,286047000.0,N
1623391015.9,286047000.0,N
1623391035.8,286047001.6,N
1623391055.6,286047002.5,N
1623391075.5,286047003.9,N
1623391095.3,286047001.7,N
1623391115.1,286047003.6,N
1623391135.9,286047003.9,N
1623391155.7,286047001.5,N
1623391175.5,286047002.9,N
1623391195.4,286047004.4,N
